Wind_Speed
15 15 16 17 17 17 18 18 17 17 18 18 18 18 18 19 20 19 18 16 16 16 16 17 17 19 20 19 20 21 20 19 19 19 19 19 19 19 19 18 18 18 18 17
16 15 16 17 17 18 18 17 17 17 18 18 18 18 19 19 19 18 16 16 16 16 16 16 17 18 18 19 20 20 19 18 18 18 17 17 17 17 16 15 16 16 16 16
18 18 18 17 16 17 17 16 17 18 18 18 17 18 18 19 20 18 16 16 16 16 15 15 16 17 17 18 19 18 17 17 16 16 15 15 15 15 14 14 15 15 15 15
20 20 21 17 16 17 17 17 17 18 18 18 17 18 18 18 18 17 15 15 15 14 14 14 15 16 17 17 16 16 15 16 16 15 14 14 14 15 14 14 15 15 16 15
22 22 21 17 17 17 18 17 17 17 17 18 18 18 17 17 16 16 15 13 13 13 13 15 15 15 15 14 14 14 14 14 14 13 13 14 14 14 14 14 14 15 15 15
22 22 22 19 18 18 17 16 15 16 16 17 17 17 16 15 14 13 12 11 11 12 13 13 13 13 13 13 13 14 13 14 13 13 13 13 14 14 13 14 14 15 15 15
23 23 22 20 19 18 18 16 16 16 16 17 17 16 14 13 13 12 12 11 11 12 12 11 11 12 12 12 12 13 12 12 12 12 12 13 13 13 13 13 14 14 14 15
23 23 21 19 18 17 16 15 15 16 15 15 15 14 13 12 12 12 12 11 11 12 11 10 10 11 11 11 11 11 10 10 11 11 12 12 12 13 13 13 13 13 14 15
23 22 21 19 18 17 16 16 16 16 15 15 14 13 12 12 12 11 10 10 10 11 10 9 9 10 10 10 10 9 9 10 10 11 11 12 12 13 13 13 13 13 14 15
22 21 19 17 17 16 16 17 16 15 14 13 12 11 10 9 9 9 8 7 8 9 8 8 8 8 8 9 9 9 9 9 9 10 11 11 12 13 13 13 14 14 15 15
22 19 18 17 17 17 17 15 14 14 12 11 10 9 8 7 7 6 6 7 7 7 7 7 7 7 8 8 8 8 8 8 8 10 11 11 12 13 14 14 15 15 15 16
19 17 18 17 17 17 17 15 13 13 11 10 8 6 6 7 7 6 6 6 7 7 6 6 6 7 7 7 7 7 7 8 8 9 10 11 12 13 14 15 15 16 16 16
18 17 17 16 16 16 16 15 13 12 11 9 7 7 6 6 6 5 5 5 5 5 5 5 5 6 6 7 6 6 7 7 8 9 10 11 12 13 15 16 16 16 17 18
17 17 16 15 15 14 14 14 13 11 9 8 7 6 5 4 4 4 4 4 4 4 4 4 4 5 6 6 5 5 6 7 8 9 10 12 13 14 15 16 17 17 18 19
15 15 15 14 14 14 13 12 12 11 9 7 6 5 4 3 3 3 3 3 3 3 3 3 4 5 5 5 5 6 6 7 9 10 11 12 13 14 15 16 17 18 19 19
13 13 13 12 13 13 13 12 11 10 8 7 7 5 4 3 3 2 2 2 2 2 2 2 3 4 4 4 5 6 7 8 9 10 11 12 14 15 16 17 17 19 19 20
13 11 11 10 11 12 12 13 11 8 8 8 7 6 5 4 2 2 2 1 0 1 1 2 3 4 4 5 5 6 8 8 9 10 11 13 14 15 16 17 18 19 20 21
12 11 10 10 10 12 13 12 11 8 9 8 8 7 5 3 3 2 2 1 1 1 2 3 4 4 5 5 5 7 8 9 9 10 12 13 15 16 17 18 19 20 21 21
11 10 10 10 11 12 12 12 11 10 10 9 8 6 5 4 3 3 2 2 2 1 1 3 4 5 5 5 6 7 8 9 10 11 12 14 16 17 18 19 20 21 22 22
11 11 11 12 11 11 11 11 11 11 10 9 8 7 6 5 4 4 4 3 2 1 2 3 4 5 5 6 7 8 9 10 11 12 14 16 17 18 20 21 22 23 24 24
12 12 12 12 11 11 11 12 12 11 11 10 9 8 6 5 5 5 4 3 2 1 2 3 4 5 5 7 8 9 10 11 12 13 15 17 18 19 21 22 23 24 25 26
13 12 12 12 12 12 12 13 12 12 12 11 10 9 7 6 6 5 4 3 2 2 2 2 4 5 6 7 8 9 11 12 13 15 16 17 19 20 22 24 25 26 27 27
14 13 14 14 13 13 14 13 13 13 12 11 10 9 8 7 6 5 5 4 2 2 2 3 4 5 6 7 9 11 12 14 14 15 17 19 20 22 23 25 26 27 28 29
15 15 15 15 14 14 14 14 13 12 12 11 10 10 9 7 6 6 5 3 2 1 2 3 4 5 6 8 10 11 13 15 16 17 18 20 21 23 24 25 27 28 29 30
17 16 16 16 16 15 15 14 13 12 12 11 10 10 9 8 6 5 4 3 2 1 2 4 5 6 7 9 10 12 14 15 17 18 20 21 22 23 25 27 28 29 30 31
18 17 17 17 16 15 15 14 13 12 11 11 10 10 9 8 7 5 4 3 1 1 2 4 5 6 8 9 11 13 15 16 18 19 20 22 23 25 26 28 29 30 32 33
19 18 18 17 16 16 15 14 13 12 11 11 10 10 9 8 6 5 3 2 0 1 3 5 6 7 8 10 12 14 15 17 19 20 21 23 24 26 28 29 30 32 33 34
Wind_Direction
284 279 278 281 280 276 277 278 282 288 292 295 297 298 296 297 299 297 297 300 301 301 300 302 303 304 303 306 308 310 311 311 312 315 317 317 318 319 317 317 316 317 317 316
284 278 278 280 282 279 277 279 281 285 289 293 295 295 294 296 297 294 295 299 301 301 302 302 304 306 307 309 311 311 312 313 313 315 318 320 322 325 325 325 325 326 327 326
284 283 283 284 285 282 280 281 281 283 289 295 293 292 295 298 301 298 299 300 299 299 301 302 304 307 309 310 311 312 313 317 318 318 319 320 322 328 330 330 332 333 333 331
284 283 281 287 284 284 281 281 281 283 286 289 292 294 297 298 300 297 292 293 294 298 304 308 309 309 311 312 311 312 316 320 321 318 316 319 320 325 328 331 333 333 334 334
282 284 285 285 282 283 282 280 283 284 285 289 290 293 298 299 299 296 289 292 295 298 304 310 311 313 316 317 318 319 320 324 326 324 320 320 322 324 326 328 331 335 338 337
281 282 287 290 284 283 283 280 281 283 285 287 289 290 295 297 297 296 290 295 303 305 308 311 314 317 321 323 324 324 322 328 328 329 326 325 327 329 328 330 332 334 336 338
278 279 283 286 283 283 281 279 279 280 284 285 284 288 291 296 297 296 296 298 303 309 313 316 320 322 325 329 329 328 328 331 335 336 335 335 337 338 336 334 334 335 337 338
276 274 277 279 277 277 279 278 277 279 283 285 284 286 287 290 291 293 296 300 306 311 316 321 323 325 329 336 336 338 340 338 341 344 345 346 346 348 345 341 340 340 341 342
277 275 277 273 270 270 273 271 272 278 283 283 283 281 282 285 287 285 292 300 306 314 316 321 324 329 333 340 343 347 346 343 346 354 357 357 356 355 355 352 348 347 346 344
278 277 274 272 265 262 262 263 263 270 278 280 281 283 283 281 283 282 293 304 307 314 317 321 326 335 342 344 347 353 355 357 -0 1 359 359 1 1 358 356 353 351 348 345
279 278 271 268 264 261 259 259 261 266 268 275 281 276 278 273 275 281 298 304 309 317 320 321 325 332 343 347 350 355 358 1 1 360 1 0 359 359 358 355 352 352 351 351
278 276 270 267 260 257 258 257 257 258 260 263 265 265 268 269 267 278 294 301 308 314 317 320 322 325 339 348 351 356 1 6 5 2 3 2 359 358 358 358 355 354 353 351
274 273 271 267 259 256 253 247 247 250 253 256 260 259 256 259 264 274 287 299 309 316 319 324 330 331 338 346 349 354 358 2 4 3 4 2 360 358 358 357 357 354 353 352
267 266 267 263 257 253 248 241 238 239 244 246 242 237 232 237 250 260 277 297 307 317 321 328 338 341 340 346 353 354 356 360 1 2 1 358 356 356 356 355 355 354 353 352
260 259 262 258 252 246 240 233 228 232 235 230 219 202 197 210 230 248 271 287 301 316 330 341 345 346 345 346 353 354 355 357 357 356 356 354 353 354 355 354 354 353 351 350
255 253 253 250 243 235 230 225 225 223 215 210 203 188 188 210 220 235 255 281 304 328 345 347 350 351 350 351 355 359 354 350 352 352 353 354 353 353 352 352 351 350 350 349
251 247 244 239 231 226 222 217 214 204 197 189 187 184 189 200 205 211 225 236 353 52 34 11 359 360 355 354 357 358 355 350 351 353 353 352 352 352 351 349 349 348 347 346
243 237 230 223 215 214 210 208 207 193 182 179 181 175 175 184 187 189 192 183 144 98 48 21 14 10 4 359 357 357 355 354 353 352 351 348 348 348 349 348 347 346 344 343
230 223 221 214 206 203 204 205 195 181 178 178 177 171 173 181 181 178 175 167 145 110 44 33 27 20 14 8 1 359 0 358 355 354 351 349 349 348 347 346 344 343 342 342
221 215 209 205 200 197 196 192 181 177 175 176 175 172 175 181 182 177 171 163 143 100 60 43 33 26 18 12 5 2 0 358 353 349 348 348 348 347 345 344 344 343 342 341
211 205 202 199 191 189 188 180 175 175 177 177 174 171 177 181 178 173 170 166 138 95 68 47 32 24 18 11 7 2 359 355 351 348 347 348 347 345 344 345 344 343 341 339
202 198 193 186 183 182 181 178 175 174 176 173 171 169 171 174 171 166 162 155 135 100 65 33 22 18 12 6 2 358 356 353 351 348 347 346 345 344 344 344 343 342 341 339
193 188 183 179 177 176 176 171 170 171 169 168 169 167 165 165 164 160 156 151 133 92 54 28 17 11 5 2 359 356 354 351 349 347 346 345 346 345 344 343 342 342 341 340
187 183 179 177 176 175 170 167 168 166 165 167 168 166 167 164 159 157 154 149 133 87 41 24 16 7 1 357 355 354 354 353 350 348 348 348 347 345 344 342 342 342 342 340
181 178 174 175 173 171 171 171 169 169 168 167 166 166 167 167 164 163 163 158 136 56 16 12 8 3 359 356 353 352 352 352 351 350 350 349 348 346 344 343 343 342 342 341
178 175 174 173 172 172 171 169 170 171 170 170 172 172 174 174 171 169 169 166 157 353 355 357 357 357 355 352 351 350 350 349 349 349 348 347 346 346 345 344 343 342 341 341
178 177 176 175 176 175 173 173 173 172 173 173 171 173 175 176 177 179 178 176 200 347 349 349 350 351 349 348 349 349 348 348 348 348 347 346 345 345 345 345 344 343 341 341
Height
5818 5818 5817 5816 5816 5815 5813 5812 5811 5811 5810 5809 5808 5807 5806 5804 5802 5800 5799 5797 5796 5795 5793 5791 5789 5786 5784 5781 5778 5775 5772 5768 5765 5761 5758 5754 5750 5747 5743 5739 5735 5732 5729 5726
5814 5813 5812 5811 5811 5809 5808 5807 5806 5806 5805 5804 5803 5802 5801 5799 5797 5795 5793 5792 5791 5789 5787 5786 5784 5781 5778 5776 5773 5770 5767 5764 5761 5757 5754 5750 5747 5743 5739 5736 5732 5729 5726 5723
5808 5808 5807 5807 5806 5804 5803 5802 5802 5801 5801 5799 5798 5797 5796 5794 5793 5790 5788 5787 5787 5785 5783 5781 5779 5777 5774 5771 5769 5766 5763 5759 5756 5753 5750 5747 5744 5740 5737 5733 5730 5727 5723 5720
5802 5802 5801 5805 5801 5799 5798 5797 5796 5796 5795 5794 5793 5792 5791 5789 5788 5786 5784 5783 5782 5780 5779 5777 5775 5772 5769 5767 5764 5761 5759 5756 5753 5750 5747 5744 5741 5738 5735 5731 5728 5725 5721 5718
5796 5795 5795 5797 5795 5793 5792 5792 5791 5791 5790 5789 5788 5787 5786 5785 5783 5781 5780 5779 5778 5776 5775 5773 5771 5768 5765 5763 5760 5758 5755 5752 5749 5746 5744 5741 5738 5735 5732 5729 5726 5722 5719 5716
5790 5789 5788 5792 5790 5788 5788 5787 5787 5785 5785 5784 5783 5782 5782 5780 5778 5777 5776 5775 5774 5773 5771 5769 5767 5764 5762 5760 5757 5755 5752 5749 5745 5743 5741 5738 5735 5733 5730 5727 5724 5721 5718 5715
5784 5782 5783 5784 5784 5783 5783 5783 5781 5780 5779 5779 5778 5777 5777 5775 5774 5773 5772 5771 5770 5769 5768 5766 5764 5762 5759 5756 5754 5751 5748 5746 5744 5741 5739 5736 5733 5730 5728 5725 5722 5719 5716 5712
5777 5776 5780 5778 5777 5777 5777 5775 5775 5774 5773 5773 5772 5772 5772 5771 5770 5769 5769 5768 5767 5766 5764 5763 5761 5759 5757 5754 5751 5748 5746 5745 5742 5740 5737 5735 5732 5729 5726 5723 5720 5717 5714 5711
5770 5772 5772 5770 5770 5770 5770 5769 5769 5768 5768 5767 5767 5767 5767 5767 5766 5766 5766 5765 5764 5763 5761 5760 5759 5757 5754 5752 5749 5747 5745 5743 5741 5738 5736 5734 5731 5728 5725 5722 5719 5716 5713 5710
5762 5763 5763 5763 5762 5763 5763 5762 5762 5763 5763 5762 5762 5762 5762 5762 5762 5763 5762 5762 5761 5760 5759 5758 5756 5755 5753 5751 5748 5746 5744 5742 5740 5738 5736 5733 5731 5728 5725 5722 5719 5716 5712 5709
5755 5756 5756 5756 5756 5756 5756 5757 5757 5757 5757 5758 5758 5758 5759 5760 5760 5760 5760 5759 5759 5758 5757 5756 5755 5753 5752 5750 5748 5746 5744 5742 5740 5738 5735 5733 5730 5728 5725 5722 5718 5715 5712 5708
5749 5750 5749 5750 5750 5750 5750 5751 5752 5753 5753 5753 5754 5755 5756 5757 5757 5757 5757 5757 5757 5756 5755 5754 5753 5752 5750 5749 5747 5745 5744 5742 5740 5737 5735 5733 5730 5727 5724 5721 5718 5714 5711 5707
5742 5742 5742 5743 5744 5745 5745 5747 5748 5748 5749 5750 5751 5752 5753 5754 5755 5755 5755 5755 5755 5754 5753 5753 5752 5750 5749 5748 5746 5744 5743 5741 5739 5737 5735 5732 5730 5727 5724 5721 5717 5714 5710 5706
5735 5736 5736 5738 5738 5740 5741 5742 5743 5745 5746 5747 5748 5749 5751 5752 5752 5753 5753 5753 5753 5752 5752 5751 5750 5749 5748 5747 5745 5744 5742 5741 5739 5736 5734 5732 5729 5726 5723 5720 5717 5713 5709 5705
5729 5730 5730 5732 5733 5735 5736 5738 5740 5742 5743 5744 5746 5747 5749 5750 5751 5751 5751 5751 5751 5750 5750 5750 5749 5748 5747 5745 5744 5743 5742 5740 5738 5736 5734 5731 5729 5726 5723 5719 5716 5712 5708 5704
5723 5724 5725 5727 5728 5730 5732 5735 5737 5739 5740 5742 5744 5745 5747 5748 5749 5749 5750 5750 5749 5749 5749 5748 5748 5747 5746 5744 5743 5742 5741 5739 5737 5735 5733 5730 5728 5725 5722 5718 5715 5711 5707 5703
5719 5720 5721 5723 5725 5727 5729 5732 5734 5736 5738 5741 5742 5744 5746 5747 5748 5748 5748 5749 5748 5748 5748 5747 5747 5746 5745 5744 5742 5741 5740 5738 5737 5735 5732 5730 5727 5724 5721 5717 5713 5710 5706 5702
5715 5717 5718 5720 5722 5725 5727 5729 5731 5734 5736 5739 5741 5742 5744 5746 5747 5747 5747 5748 5748 5748 5747 5747 5746 5745 5744 5743 5742 5741 5739 5738 5736 5734 5731 5729 5726 5723 5719 5716 5712 5708 5704 5699
5713 5714 5716 5718 5720 5722 5725 5727 5730 5732 5735 5737 5739 5741 5743 5745 5746 5746 5747 5747 5747 5747 5747 5746 5746 5745 5744 5743 5742 5740 5739 5737 5735 5733 5731 5728 5725 5722 5718 5714 5710 5706 5702 5697
5710 5712 5714 5716 5718 5721 5723 5725 5728 5731 5734 5736 5738 5740 5742 5744 5745 5746 5746 5747 5747 5747 5747 5746 5746 5745 5744 5743 5742 5740 5738 5736 5734 5732 5730 5727 5724 5720 5716 5712 5708 5704 5699 5695
5708 5710 5712 5715 5717 5720 5722 5724 5727 5729 5732 5735 5737 5739 5741 5743 5744 5745 5746 5746 5747 5747 5747 5746 5746 5745 5744 5743 5741 5740 5738 5736 5734 5731 5729 5725 5722 5718 5715 5710 5706 5701 5696 5692
5706 5708 5711 5713 5716 5718 5721 5723 5726 5729 5731 5734 5736 5738 5740 5742 5743 5744 5745 5746 5746 5746 5746 5746 5746 5745 5744 5742 5741 5739 5737 5735 5733 5730 5727 5724 5720 5717 5713 5708 5703 5699 5693 5688
5704 5707 5710 5713 5715 5718 5721 5723 5725 5728 5731 5733 5736 5737 5740 5742 5743 5744 5745 5746 5746 5747 5746 5746 5745 5744 5743 5742 5740 5738 5736 5734 5731 5728 5726 5722 5718 5714 5710 5705 5701 5696 5690 5685
5703 5706 5709 5712 5715 5718 5721 5723 5726 5728 5731 5733 5735 5737 5740 5741 5743 5744 5745 5746 5746 5746 5746 5746 5745 5744 5743 5741 5740 5738 5735 5733 5730 5727 5723 5720 5716 5712 5707 5703 5698 5692 5687 5681
5702 5706 5709 5712 5715 5718 5721 5724 5727 5729 5731 5733 5735 5737 5739 5741 5743 5744 5745 5746 5746 5746 5746 5745 5744 5743 5742 5740 5739 5737 5734 5732 5729 5725 5722 5718 5714 5709 5705 5700 5694 5689 5684 5678
5702 5705 5709 5712 5715 5718 5721 5724 5727 5729 5731 5733 5735 5737 5739 5741 5742 5744 5744 5745 5745 5745 5745 5744 5744 5742 5741 5739 5738 5736 5733 5730 5727 5723 5720 5716 5712 5707 5702 5697 5692 5686 5680 5674
5701 5705 5708 5711 5715 5718 5721 5724 5726 5728 5731 5733 5735 5737 5738 5740 5742 5743 5744 5744 5745 5745 5744 5743 5742 5741 5740 5738 5736 5734 5731 5728 5725 5721 5718 5714 5709 5704 5699 5694 5688 5683 5677 5670